,,Stat6,,Stat2,,Stat8,,Stat9,,Stat10,,Wind1,,Wind1,
time,status,PA1M_AVG,status,PR1M_SUM,status,RH1M_AVG,status,SR1M_AVG,status,TA1M_AVG,status,W1dAve1m,status,W1sAve1m,
2005-12-30, 00:00:00,VALID,919.458,VALID,0,VALID,100,VALID,0,VALID,19.3695,VALID,12,VALID,0.188408,
2005-12-30, 00:01:00,VALID,919.428,VALID,0,VALID,100,VALID,-0.0509425,VALID,19.3794,VALID,360,VALID,0.552194,
2005-12-30, 00:02:00,VALID,919.417,VALID,0,VALID,100,VALID,-0.0509425,VALID,19.3859,VALID,303,VALID,0.0626662,
2005-12-30, 00:03:00,VALID,919.393,VALID,0,VALID,100,VALID,-0.0339617,VALID,19.4055,VALID,303,VALID,0.0946584,
2005-12-30, 00:04:00,VALID,919.375,VALID,0,VALID,100,VALID,0,VALID,19.3953,VALID,303,VALID,0.0321181,
2005-12-30, 00:05:00,VALID,919.355,VALID,0.2,VALID,100,VALID,0.0339617,VALID,19.3946,VALID,303,VALID,0,
2005-12-30, 00:06:00,VALID,919.338,VALID,0,VALID,100,VALID,0.101885,VALID,19.365,VALID,303,VALID,0,
2005-12-30, 00:07:00,VALID,919.316,VALID,0,VALID,100,VALID,0.0849042,VALID,19.3133,VALID,303,VALID,0.0788044,
2005-12-30, 00:08:00,VALID,919.302,VALID,0,VALID,100,VALID,0.0849042,VALID,19.314,VALID,303,VALID,0.00204613,
2005-12-30, 00:09:00,VALID,919.276,VALID,0,VALID,100,VALID,0.101885,VALID,19.3038,VALID,303,VALID,0.0783203,
2005-12-30, 00:10:00,VALID,919.241,VALID,0,VALID,100,VALID,0.101885,VALID,19.275,VALID,303,VALID,0.381138,
2005-12-30, 00:11:00,VALID,919.204,VALID,0,VALID,100,VALID,0.101885,VALID,19.2292,VALID,303,VALID,0.108817,
2005-12-30, 00:12:00,VALID,919.173,VALID,0,VALID,100,VALID,0.118866,VALID,19.2325,VALID,303,VALID,0.0212054,
2005-12-30, 00:13:00,VALID,919.137,VALID,0.2,VALID,100,VALID,0.0849042,VALID,19.2325,VALID,303,VALID,0.090298,
2005-12-30, 00:14:00,VALID,919.116,VALID,0,VALID,100,VALID,0.0849042,VALID,19.265,VALID,339,VALID,0.347384,
2005-12-30, 00:15:00,VALID,919.076,VALID,0,VALID,100,VALID,0.0849042,VALID,19.271,VALID,32,VALID,0.516369,
2005-12-30, 00:16:00,VALID,919.037,VALID,0,VALID,100,VALID,0.0849042,VALID,19.2484,VALID,33,VALID,0.488554,
2005-12-30, 00:17:00,VALID,918.996,VALID,0,VALID,100,VALID,0.0509425,VALID,19.2389,VALID,44,VALID,0.687872,
2005-12-30, 00:18:00,VALID,918.95,VALID,0,VALID,100,VALID,0.0849042,VALID,19.2059,VALID,47,VALID,0.606148,
2005-12-30, 00:19:00,VALID,918.926,VALID,0,VALID,100,VALID,0.0849042,VALID,19.1902,VALID,49,VALID,0.441692,
2005-12-30, 00:20:00,VALID,918.902,VALID,0,VALID,100,VALID,0.0679233,VALID,19.1711,VALID,67,VALID,0.450149,
2005-12-30, 00:21:00,VALID,918.878,VALID,0,VALID,100,VALID,0.118866,VALID,19.1482,VALID,80,VALID,0.377083,
2005-12-30, 00:22:00,VALID,918.857,VALID,0.2,VALID,100,VALID,0.0849042,VALID,19.1484,VALID,103,VALID,0.537427,
2005-12-30, 00:23:00,VALID,918.823,VALID,0,VALID,100,VALID,0.0849042,VALID,19.1519,VALID,110,VALID,0.475836,
2005-12-30, 00:24:00,VALID,918.809,VALID,0,VALID,100,VALID,0.0679233,VALID,19.139,VALID,105,VALID,0.688072,
2005-12-30, 00:25:00,VALID,918.783,VALID,0,VALID,100,VALID,0.0679233,VALID,19.1223,VALID,99,VALID,0.575335,
2005-12-30, 00:26:00,VALID,918.769,VALID,0,VALID,100,VALID,0.101885,VALID,19.133,VALID,97,VALID,0.727805,
2005-12-30, 00:27:00,VALID,918.758,VALID,0,VALID,100,VALID,0.0849042,VALID,19.1332,VALID,112,VALID,0.858789,
2005-12-30, 00:28:00,VALID,918.732,VALID,0,VALID,100,VALID,0.0679233,VALID,19.097,VALID,113,VALID,0.662972,
2005-12-30, 00:29:00,VALID,918.72,VALID,0.2,VALID,100,VALID,0.0849042,VALID,19.1072,VALID,113,VALID,0.348656,
2005-12-30, 00:30:00,VALID,918.714,VALID,0,VALID,100,VALID,0.0849042,VALID,19.1099,VALID,137,VALID,0.325107,
2005-12-30, 00:31:00,VALID,918.707,VALID,0,VALID,100,VALID,0.0849042,VALID,19.1196,VALID,152,VALID,0.345238,
2005-12-30, 00:32:00,VALID,918.701,VALID,0,VALID,100,VALID,0.101885,VALID,19.1131,VALID,152,VALID,0.407639,
2005-12-30, 00:33:00,VALID,918.698,VALID,0,VALID,100,VALID,0.0849042,VALID,19.1027,VALID,150,VALID,0.390443,
2005-12-30, 00:34:00,VALID,918.678,VALID,0,VALID,100,VALID,0.0679233,VALID,19.1265,VALID,150,VALID,0.238991,
2005-12-30, 00:35:00,VALID,918.656,VALID,0,VALID,100,VALID,-0.0169808,VALID,19.1307,VALID,151,VALID,0.38244,
2005-12-30, 00:36:00,VALID,918.647,VALID,0,VALID,100,VALID,0.0339617,VALID,19.1372,VALID,154,VALID,0.721912,
2005-12-30, 00:37:00,VALID,918.633,VALID,0,VALID,100,VALID,0,VALID,19.1245,VALID,151,VALID,0.476563,
2005-12-30, 00:38:00,VALID,918.632,VALID,0,VALID,100,VALID,0,VALID,19.1303,VALID,147,VALID,0.730923,
2005-12-30, 00:39:00,VALID,918.638,VALID,0.2,VALID,100,VALID,-0.0509425,VALID,19.1183,VALID,151,VALID,0.544876,
2005-12-30, 00:40:00,VALID,918.626,VALID,0,VALID,100,VALID,-0.0169808,VALID,19.0954,VALID,151,VALID,0.306141,
2005-12-30, 00:41:00,VALID,918.625,VALID,0,VALID,100,VALID,0,VALID,19.0949,VALID,127,VALID,0.468941,
2005-12-30, 00:42:00,VALID,918.609,VALID,0,VALID,100,VALID,0.0339617,VALID,19.0885,VALID,121,VALID,0.371761,
2005-12-30, 00:43:00,VALID,918.612,VALID,0,VALID,100,VALID,0,VALID,19.0756,VALID,123,VALID,0.693873,
2005-12-30, 00:44:00,VALID,918.613,VALID,0,VALID,100,VALID,0.0169808,VALID,19.0693,VALID,140,VALID,0.466654,
2005-12-30, 00:45:00,VALID,918.608,VALID,0,VALID,100,VALID,0.0169808,VALID,19.0698,VALID,140,VALID,0.125381,
2005-12-30, 00:46:00,VALID,918.599,VALID,0,VALID,100,VALID,0.0339617,VALID,19.0626,VALID,126,VALID,0.198785,
2005-12-30, 00:47:00,VALID,918.603,VALID,0,VALID,100,VALID,0,VALID,19.0594,VALID,81,VALID,0.270833,
2005-12-30, 00:48:00,VALID,918.607,VALID,0,VALID,100,VALID,0.0169808,VALID,19.0557,VALID,79,VALID,0.338118,
2005-12-30, 00:49:00,VALID,918.614,VALID,0,VALID,100,VALID,0,VALID,19.0756,VALID,76,VALID,0.41276,
2005-12-30, 00:50:00,VALID,918.601,VALID,0,VALID,100,VALID,0.0169808,VALID,19.0751,VALID,70,VALID,0.463914,
2005-12-30, 00:51:00,VALID,918.601,VALID,0,VALID,100,VALID,0.0509425,VALID,19.1081,VALID,39,VALID,0.548828,
2005-12-30, 00:52:00,VALID,918.607,VALID,0,VALID,100,VALID,0.118866,VALID,19.0935,VALID,40,VALID,0.60119,
2005-12-30, 00:53:00,VALID,918.613,VALID,0,VALID,100,VALID,0.135847,VALID,19.0838,VALID,54,VALID,0.462798,
2005-12-30, 00:54:00,VALID,918.601,VALID,0,VALID,100,VALID,0.0849042,VALID,19.0709,VALID,61,VALID,0.330788,
2005-12-30, 00:55:00,VALID,918.59,VALID,0.2,VALID,100,VALID,0.101885,VALID,19.0676,VALID,61,VALID,0.701705,
2005-12-30, 00:56:00,VALID,918.584,VALID,0,VALID,100,VALID,0.0849042,VALID,19.0455,VALID,65,VALID,0.749805,
2005-12-30, 00:57:00,VALID,918.584,VALID,0,VALID,100,VALID,0.0679233,VALID,19.0485,VALID,66,VALID,0.447027,
2005-12-30, 00:58:00,VALID,918.579,VALID,0,VALID,100,VALID,0.118866,VALID,19.0393,VALID,66,VALID,0.383929,
2005-12-30, 00:59:00,VALID,918.574,VALID,0,VALID,100,VALID,0.101885,VALID,19.0383,VALID,66,VALID,0.260045,
2005-12-30, 01:00:00,VALID,918.569,VALID,0,VALID,100,VALID,0.0849042,VALID,19.0746,VALID,66,VALID,0.365799,
2005-12-30, 01:01:00,VALID,918.58,VALID,0,VALID,100,VALID,0.101885,VALID,19.0676,VALID,53,VALID,0.416969,
2005-12-30, 01:02:00,VALID,918.575,VALID,0,VALID,100,VALID,0.0849042,VALID,19.0811,VALID,38,VALID,0.473656,
2005-12-30, 01:03:00,VALID,918.575,VALID,0,VALID,100,VALID,0.0849042,VALID,19.084,VALID,22,VALID,0.545508,
2005-12-30, 01:04:00,VALID,918.59,VALID,0,VALID,100,VALID,0.101885,VALID,19.055,VALID,20,VALID,0.525436,
2005-12-30, 01:05:00,VALID,918.607,VALID,0,VALID,100,VALID,0,VALID,19.0368,VALID,19,VALID,0.297238,
2005-12-30, 01:06:00,VALID,918.598,VALID,0,VALID,100,VALID,-0.0169808,VALID,19.0243,VALID,17,VALID,0.394259,
2005-12-30, 01:07:00,VALID,918.607,VALID,0,VALID,100,VALID,0,VALID,19.0077,VALID,13,VALID,0.206759,
2005-12-30, 01:08:00,VALID,918.616,VALID,0.2,VALID,100,VALID,0,VALID,19.0206,VALID,12,VALID,0.11951,
2005-12-30, 01:09:00,VALID,918.624,VALID,0,VALID,100,VALID,0,VALID,19.0303,VALID,360,VALID,0.236806,
2005-12-30, 01:10:00,VALID,918.626,VALID,0,VALID,100,VALID,0,VALID,19.0469,VALID,355,VALID,0.0988281,
2005-12-30, 01:11:00,VALID,918.628,VALID,0,VALID,100,VALID,0,VALID,19.0437,VALID,355,VALID,0.0323661,
2005-12-30, 01:12:00,VALID,918.633,VALID,0,VALID,100,VALID,0,VALID,19.0536,VALID,355,VALID,0,
2005-12-30, 01:13:00,VALID,918.62,VALID,0,VALID,100,VALID,-0.0339617,VALID,19.0437,VALID,355,VALID,0.0012429,
2005-12-30, 01:14:00,VALID,918.617,VALID,0,VALID,100,VALID,-0.0169808,VALID,19.0668,VALID,355,VALID,0.009375,
2005-12-30, 01:15:00,VALID,918.615,VALID,0,VALID,100,VALID,-0.0509425,VALID,19.0827,VALID,355,VALID,0.43099,
2005-12-30, 01:16:00,VALID,918.591,VALID,0,VALID,100,VALID,-0.0679233,VALID,19.0823,VALID,359,VALID,0.454268,
2005-12-30, 01:17:00,VALID,918.59,VALID,0,VALID,100,VALID,0,VALID,19.0823,VALID,6,VALID,0.499238,
2005-12-30, 01:18:00,VALID,918.583,VALID,0,VALID,100,VALID,0,VALID,19.0495,VALID,6,VALID,0.468178,
2005-12-30, 01:19:00,VALID,918.583,VALID,0,VALID,100,VALID,0,VALID,19.0536,VALID,6,VALID,0.46657,
2005-12-30, 01:20:00,VALID,918.588,VALID,0,VALID,100,VALID,0.0339617,VALID,19.0437,VALID,6,VALID,0.365473,
2005-12-30, 01:21:00,VALID,918.589,VALID,0,VALID,100,VALID,0,VALID,19.0139,VALID,6,VALID,0.320126,
2005-12-30, 01:22:00,VALID,918.596,VALID,0,VALID,100,VALID,0,VALID,19.0079,VALID,6,VALID,0.384673,
2005-12-30, 01:23:00,VALID,918.584,VALID,0.2,VALID,100,VALID,0.0509425,VALID,19.0079,VALID,6,VALID,0.371838,
2005-12-30, 01:24:00,VALID,918.577,VALID,0,VALID,100,VALID,0.0169808,VALID,19.0044,VALID,6,VALID,0.479353,
2005-12-30, 01:25:00,VALID,918.574,VALID,0,VALID,100,VALID,0.0169808,VALID,19.0176,VALID,6,VALID,0.511541,
2005-12-30, 01:26:00,VALID,918.565,VALID,0,VALID,100,VALID,0.0169808,VALID,19.0102,VALID,9,VALID,0.602121,
2005-12-30, 01:27:00,VALID,918.552,VALID,0,VALID,100,VALID,0.0679233,VALID,19.0077,VALID,11,VALID,0.760045,
2005-12-30, 01:28:00,VALID,918.533,VALID,0,VALID,100,VALID,0.0509425,VALID,18.9913,VALID,11,VALID,0.948847,
2005-12-30, 01:29:00,VALID,918.505,VALID,0,VALID,100,VALID,0.0339617,VALID,19.001,VALID,10,VALID,1.087,
2005-12-30, 01:30:00,VALID,918.483,VALID,0,VALID,100,VALID,0.0509425,VALID,19.004,VALID,24,VALID,0.873857,
2005-12-30, 01:31:00,VALID,918.46,VALID,0,VALID,100,VALID,0.0169808,VALID,19.0141,VALID,17,VALID,1.07882,
2005-12-30, 01:32:00,VALID,918.449,VALID,0,VALID,100,VALID,0.0339617,VALID,18.9876,VALID,20,VALID,1.29288,
2005-12-30, 01:33:00,VALID,918.455,VALID,0,VALID,100,VALID,0.0169808,VALID,18.9843,VALID,14,VALID,0.779154,
2005-12-30, 01:34:00,VALID,918.451,VALID,0,VALID,100,VALID,0.0679233,VALID,18.9813,VALID,319,VALID,0.975038,
2005-12-30, 01:35:00,VALID,918.428,VALID,0,VALID,100,VALID,0,VALID,18.9818,VALID,314,VALID,0.577703,
2005-12-30, 01:36:00,VALID,918.399,VALID,0,VALID,100,VALID,0.0679233,VALID,18.985,VALID,350,VALID,0.233994,
2005-12-30, 01:37:00,VALID,918.364,VALID,0,VALID,100,VALID,0.0509425,VALID,18.9746,VALID,15,VALID,0.666109,
2005-12-30, 01:38:00,VALID,918.356,VALID,0,VALID,100,VALID,0.0339617,VALID,18.9781,VALID,7,VALID,0.880022,
2005-12-30, 01:39:00,VALID,918.338,VALID,0,VALID,100,VALID,0.0339617,VALID,18.985,VALID,325,VALID,0.616997,
2005-12-30, 01:40:00,VALID,918.331,VALID,0,VALID,100,VALID,0.0339617,VALID,19.0007,VALID,319,VALID,0.0597656,
2005-12-30, 01:41:00,VALID,918.319,VALID,0,VALID,100,VALID,0.0679233,VALID,19.0402,VALID,325,VALID,0.309126,
2005-12-30, 01:42:00,VALID,918.293,VALID,0,VALID,100,VALID,0.0169808,VALID,19.0465,VALID,23,VALID,0.877725,
2005-12-30, 01:43:00,VALID,918.275,VALID,0,VALID,100,VALID,0.0169808,VALID,19.0753,VALID,16,VALID,1.04478,
2005-12-30, 01:44:00,VALID,918.259,VALID,0,VALID,100,VALID,0,VALID,19.0885,VALID,23,VALID,0.807664,
2005-12-30, 01:45:00,VALID,918.253,VALID,0,VALID,100,VALID,0.0169808,VALID,19.1012,VALID,9,VALID,0.775618,
2005-12-30, 01:46:00,VALID,918.251,VALID,0,VALID,100,VALID,0,VALID,19.0857,VALID,359,VALID,0.358073,
2005-12-30, 01:47:00,VALID,918.223,VALID,0,VALID,100,VALID,0.0509425,VALID,19.0686,VALID,4,VALID,1.14272,
2005-12-30, 01:48:00,VALID,918.206,VALID,0,VALID,100,VALID,0.0679233,VALID,19.0532,VALID,19,VALID,1.87862,
2005-12-30, 01:49:00,VALID,918.212,VALID,0,VALID,100,VALID,0.0509425,VALID,19.0887,VALID,15,VALID,0.762277,
2005-12-30, 01:50:00,VALID,918.202,VALID,0,VALID,100,VALID,0.0509425,VALID,19.0813,VALID,15,VALID,0.561098,
2005-12-30, 01:51:00,VALID,918.2,VALID,0,VALID,100,VALID,0,VALID,19.0979,VALID,15,VALID,0.457849,
2005-12-30, 01:52:00,VALID,918.176,VALID,0,VALID,100,VALID,0.0339617,VALID,19.0977,VALID,16,VALID,0.368676,
2005-12-30, 01:53:00,VALID,918.165,VALID,0,VALID,100,VALID,0.0509425,VALID,19.0887,VALID,358,VALID,1.00563,
2005-12-30, 01:54:00,VALID,918.148,VALID,0,VALID,100,VALID,0.0679233,VALID,18.9788,VALID,359,VALID,0.950347,
2005-12-30, 01:55:00,VALID,918.139,VALID,0,VALID,100,VALID,0.0339617,VALID,18.9368,VALID,18,VALID,0.600472,
2005-12-30, 01:56:00,VALID,918.118,VALID,0,VALID,100,VALID,0.0509425,VALID,18.9035,VALID,333,VALID,0.96926,
2005-12-30, 01:57:00,VALID,918.097,VALID,0,VALID,100,VALID,0.0339617,VALID,18.9038,VALID,355,VALID,0.893999,
2005-12-30, 01:58:00,VALID,918.08,VALID,0,VALID,100,VALID,0.0509425,VALID,18.9042,VALID,6,VALID,1.02046,
2005-12-30, 01:59:00,VALID,918.06,VALID,0,VALID,100,VALID,0.0509425,VALID,18.8814,VALID,17,VALID,1.49364,
2005-12-30, 02:00:00,VALID,918.047,VALID,0,VALID,100,VALID,0,VALID,18.8821,VALID,1,VALID,0.829942,
2005-12-30, 02:01:00,VALID,918.054,VALID,0,VALID,100,VALID,0.0509425,VALID,18.8918,VALID,353,VALID,0.859193,
2005-12-30, 02:02:00,VALID,918.032,VALID,0,VALID,100,VALID,0,VALID,18.9047,VALID,1,VALID,0.896094,
2005-12-30, 02:03:00,VALID,918.014,VALID,0,VALID,100,VALID,0.0509425,VALID,18.9015,VALID,2,VALID,0.971058,
2005-12-30, 02:04:00,VALID,917.989,VALID,0,VALID,100,VALID,0,VALID,18.8955,VALID,9,VALID,1.22585,
2005-12-30, 02:05:00,VALID,917.969,VALID,0,VALID,100,VALID,0.0169808,VALID,18.8655,VALID,7,VALID,1.04052,
2005-12-30, 02:06:00,VALID,917.946,VALID,0.2,VALID,100,VALID,0,VALID,18.8493,VALID,10,VALID,1.36204,
2005-12-30, 02:07:00,VALID,917.925,VALID,0,VALID,100,VALID,0.0169808,VALID,18.8498,VALID,6,VALID,1.47832,
2005-12-30, 02:08:00,VALID,917.904,VALID,0,VALID,100,VALID,0.0169808,VALID,18.8142,VALID,352,VALID,1.46172,
2005-12-30, 02:09:00,VALID,917.876,VALID,0,VALID,100,VALID,-0.0169808,VALID,18.7724,VALID,10,VALID,1.51776,
2005-12-30, 02:10:00,VALID,917.854,VALID,0,VALID,100,VALID,-0.0339617,VALID,18.7747,VALID,18,VALID,1.36643,
2005-12-30, 02:11:00,VALID,917.854,VALID,0,VALID,100,VALID,0.0169808,VALID,18.7943,VALID,14,VALID,1.52587,
2005-12-30, 02:12:00,VALID,917.836,VALID,0,VALID,100,VALID,-0.0339617,VALID,18.7976,VALID,6,VALID,1.144,
2005-12-30, 02:13:00,VALID,917.829,VALID,0,VALID,100,VALID,-0.0509425,VALID,18.8008,VALID,353,VALID,0.76875,
2005-12-30, 02:14:00,VALID,917.815,VALID,0,VALID,100,VALID,0,VALID,18.7946,VALID,318,VALID,0.728743,
2005-12-30, 02:15:00,VALID,917.817,VALID,0,VALID,100,VALID,0,VALID,18.8075,VALID,328,VALID,0.462081,
2005-12-30, 02:16:00,VALID,917.79,VALID,0,VALID,100,VALID,0.0169808,VALID,18.7881,VALID,4,VALID,1.17132,
2005-12-30, 02:17:00,VALID,917.789,VALID,0,VALID,100,VALID,-0.0339617,VALID,18.7879,VALID,7,VALID,0.779474,
2005-12-30, 02:18:00,VALID,917.777,VALID,0,VALID,100,VALID,-0.0509425,VALID,18.7976,VALID,4,VALID,1.09121,
2005-12-30, 02:19:00,VALID,917.746,VALID,0,VALID,100,VALID,0.0169808,VALID,18.7941,VALID,10,VALID,1.22675,
2005-12-30, 02:20:00,VALID,917.726,VALID,0,VALID,100,VALID,-0.101885,VALID,18.8221,VALID,16,VALID,0.905248,
2005-12-30, 02:21:00,VALID,917.708,VALID,0,VALID,100,VALID,-0.135847,VALID,18.835,VALID,12,VALID,1.00191,
2005-12-30, 02:22:00,VALID,917.698,VALID,0,VALID,100,VALID,-0.101885,VALID,18.8452,VALID,13,VALID,1.22892,
2005-12-30, 02:23:00,VALID,917.689,VALID,0,VALID,100,VALID,-0.118866,VALID,18.8415,VALID,19,VALID,0.84096,
2005-12-30, 02:24:00,VALID,917.658,VALID,0,VALID,100,VALID,-0.135847,VALID,18.8387,VALID,18,VALID,0.976199,
2005-12-30, 02:25:00,VALID,917.651,VALID,0,VALID,100,VALID,-0.169808,VALID,18.8191,VALID,18,VALID,1.68129,
2005-12-30, 02:26:00,VALID,917.646,VALID,0,VALID,100,VALID,-0.169808,VALID,18.8094,VALID,17,VALID,1.30126,
2005-12-30, 02:27:00,VALID,917.638,VALID,0,VALID,100,VALID,-0.169808,VALID,18.8159,VALID,20,VALID,0.820694,
2005-12-30, 02:28:00,VALID,917.638,VALID,0,VALID,100,VALID,-0.135847,VALID,18.8126,VALID,22,VALID,0.849382,
2005-12-30, 02:29:00,VALID,917.633,VALID,0,VALID,100,VALID,-0.135847,VALID,18.7803,VALID,13,VALID,0.844295,
2005-12-30, 02:30:00,VALID,917.63,VALID,0,VALID,100,VALID,-0.152827,VALID,18.7281,VALID,351,VALID,0.677379,
2005-12-30, 02:31:00,VALID,917.625,VALID,0,VALID,100,VALID,-0.0849042,VALID,18.7224,VALID,355,VALID,0.0663194,
2005-12-30, 02:32:00,VALID,917.637,VALID,0,VALID,100,VALID,-0.118866,VALID,18.7353,VALID,355,VALID,0.217578,
2005-12-30, 02:33:00,VALID,917.631,VALID,0,VALID,100,VALID,-0.118866,VALID,18.7189,VALID,355,VALID,0.0618056,
2005-12-30, 02:34:00,VALID,917.635,VALID,0,VALID,100,VALID,-0.0849042,VALID,18.7219,VALID,355,VALID,0.000186012,
2005-12-30, 02:35:00,VALID,917.628,VALID,0,VALID,100,VALID,0.0169808,VALID,18.7173,VALID,355,VALID,0.118608,
2005-12-30, 02:36:00,VALID,917.616,VALID,0,VALID,100,VALID,0,VALID,18.7307,VALID,355,VALID,0,
2005-12-30, 02:37:00,VALID,917.621,VALID,0,VALID,100,VALID,0.0339617,VALID,18.7371,VALID,355,VALID,0,
2005-12-30, 02:38:00,VALID,917.608,VALID,0,VALID,100,VALID,0,VALID,18.7471,VALID,355,VALID,0,
2005-12-30, 02:39:00,VALID,917.619,VALID,0,VALID,100,VALID,0.0339617,VALID,18.7337,VALID,355,VALID,0.0169271,
2005-12-30, 02:40:00,VALID,917.618,VALID,0,VALID,100,VALID,0.0339617,VALID,18.753,VALID,355,VALID,7.62942,
2005-12-30, 02:41:00,VALID,917.599,VALID,0,VALID,100,VALID,0.0169808,VALID,18.7563,VALID,355,VALID,0,
2005-12-30, 02:42:00,VALID,917.588,VALID,0,VALID,100,VALID,0.0169808,VALID,18.7625,VALID,355,VALID,0,
2005-12-30, 02:43:00,VALID,917.581,VALID,0,VALID,100,VALID,0.0339617,VALID,18.7595,VALID,355,VALID,0,
2005-12-30, 02:44:00,VALID,917.576,VALID,0,VALID,100,VALID,0.0169808,VALID,18.7597,VALID,355,VALID,0,
2005-12-30, 02:45:00,VALID,917.557,VALID,0,VALID,100,VALID,0.0169808,VALID,18.7371,VALID,355,VALID,0,
2005-12-30, 02:46:00,VALID,917.544,VALID,0,VALID,100,VALID,0.0169808,VALID,18.7337,VALID,355,VALID,0,
2005-12-30, 02:47:00,VALID,917.536,VALID,0,VALID,100,VALID,0,VALID,18.7371,VALID,355,VALID,0,
2005-12-30, 02:48:00,VALID,917.524,VALID,0,VALID,100,VALID,-0.0169808,VALID,18.7339,VALID,355,VALID,0,
2005-12-30, 02:49:00,VALID,917.529,VALID,0,VALID,100,VALID,0.0339617,VALID,18.75,VALID,355,VALID,0,
2005-12-30, 02:50:00,VALID,917.523,VALID,0,VALID,100,VALID,0.0169808,VALID,18.7304,VALID,355,VALID,0,
2005-12-30, 02:51:00,VALID,917.532,VALID,0,VALID,100,VALID,0.0169808,VALID,18.7083,VALID,355,VALID,0,
2005-12-30, 02:52:00,VALID,917.523,VALID,0,VALID,100,VALID,0.0509425,VALID,18.7046,VALID,355,VALID,0,
2005-12-30, 02:53:00,VALID,917.528,VALID,0,VALID,100,VALID,0.0169808,VALID,18.7016,VALID,355,VALID,0,
2005-12-30, 02:54:00,VALID,917.517,VALID,0,VALID,100,VALID,0.0169808,VALID,18.6886,VALID,355,VALID,0,
2005-12-30, 02:55:00,VALID,917.507,VALID,0,VALID,100,VALID,0.0169808,VALID,18.6755,VALID,355,VALID,0,
2005-12-30, 02:56:00,VALID,917.49,VALID,0,VALID,100,VALID,0,VALID,18.6819,VALID,355,VALID,0,
2005-12-30, 02:57:00,VALID,917.472,VALID,0,VALID,100,VALID,0.0169808,VALID,18.6558,VALID,355,VALID,0.063528,
2005-12-30, 02:58:00,VALID,917.471,VALID,0,VALID,100,VALID,0.0339617,VALID,18.6367,VALID,355,VALID,0.038872,
2005-12-30, 02:59:00,VALID,917.458,VALID,0,VALID,100,VALID,0,VALID,18.6337,VALID,355,VALID,0.147017,
2005-12-30, 03:00:00,VALID,917.456,VALID,0,VALID,100,VALID,0.0339617,VALID,18.6069,VALID,355,VALID,0.1788,
2005-12-30, 03:01:00,VALID,917.448,VALID,0,VALID,100,VALID,0.0169808,VALID,18.6048,VALID,355,VALID,0,
2005-12-30, 03:02:00,VALID,917.448,VALID,0,VALID,100,VALID,0.0169808,VALID,18.5917,VALID,355,VALID,0,
2005-12-30, 03:03:00,VALID,917.435,VALID,0,VALID,100,VALID,0,VALID,18.6051,VALID,355,VALID,0,
2005-12-30, 03:04:00,VALID,917.415,VALID,0,VALID,100,VALID,0.0509425,VALID,18.5949,VALID,355,VALID,0,
2005-12-30, 03:05:00,VALID,917.411,VALID,0,VALID,100,VALID,0,VALID,18.5951,VALID,355,VALID,0,
2005-12-30, 03:06:00,VALID,917.399,VALID,0,VALID,100,VALID,-0.0169808,VALID,18.6016,VALID,355,VALID,0,
2005-12-30, 03:07:00,VALID,917.376,VALID,0,VALID,100,VALID,0,VALID,18.5981,VALID,355,VALID,0,
2005-12-30, 03:08:00,VALID,917.372,VALID,0,VALID,100,VALID,0.0339617,VALID,18.5887,VALID,355,VALID,0,
2005-12-30, 03:09:00,VALID,917.346,VALID,0,VALID,100,VALID,0.0169808,VALID,18.5755,VALID,355,VALID,0,
2005-12-30, 03:10:00,VALID,917.331,VALID,0,VALID,100,VALID,0.0509425,VALID,18.5787,VALID,355,VALID,0,
2005-12-30, 03:11:00,VALID,917.309,VALID,0,VALID,100,VALID,0.0169808,VALID,18.5817,VALID,355,VALID,0,
2005-12-30, 03:12:00,VALID,917.301,VALID,0,VALID,100,VALID,0.0509425,VALID,18.5852,VALID,355,VALID,0,
2005-12-30, 03:13:00,VALID,917.288,VALID,0,VALID,100,VALID,0.0339617,VALID,18.5887,VALID,19,VALID,0.329861,
2005-12-30, 03:14:00,VALID,917.273,VALID,0,VALID,100,VALID,0,VALID,18.569,VALID,47,VALID,0.363467,
2005-12-30, 03:15:00,VALID,917.259,VALID,0,VALID,100,VALID,0.0509425,VALID,18.5691,VALID,47,VALID,0.482329,
2005-12-30, 03:16:00,VALID,917.259,VALID,0,VALID,100,VALID,-0.0169808,VALID,18.5693,VALID,47,VALID,0.594512,
2005-12-30, 03:17:00,VALID,917.238,VALID,0,VALID,100,VALID,0.0509425,VALID,18.5499,VALID,47,VALID,0.630087,
2005-12-30, 03:18:00,VALID,917.235,VALID,0,VALID,100,VALID,0.0169808,VALID,18.5109,VALID,47,VALID,0.668857,
2005-12-30, 03:19:00,VALID,917.217,VALID,0,VALID,100,VALID,0.0509425,VALID,18.5039,VALID,53,VALID,0.671875,
2005-12-30, 03:20:00,VALID,917.222,VALID,0,VALID,100,VALID,0.0679233,VALID,18.5095,VALID,55,VALID,0.413281,
2005-12-30, 03:21:00,VALID,917.211,VALID,0,VALID,100,VALID,0.101885,VALID,18.4998,VALID,70,VALID,0.560976,
2005-12-30, 03:22:00,VALID,917.212,VALID,0,VALID,100,VALID,0.0679233,VALID,18.5,VALID,82,VALID,0.460574,
2005-12-30, 03:23:00,VALID,917.2,VALID,0,VALID,100,VALID,0.0169808,VALID,18.4806,VALID,89,VALID,0.837612,
2005-12-30, 03:24:00,VALID,917.185,VALID,0,VALID,100,VALID,0.101885,VALID,18.464,VALID,90,VALID,0.880952,
2005-12-30, 03:25:00,VALID,917.185,VALID,0,VALID,100,VALID,0.101885,VALID,18.4476,VALID,90,VALID,0.759375,
2005-12-30, 03:26:00,VALID,917.179,VALID,0,VALID,100,VALID,0.118866,VALID,18.4675,VALID,89,VALID,0.752046,
2005-12-30, 03:27:00,VALID,917.175,VALID,0,VALID,100,VALID,0.101885,VALID,18.4709,VALID,90,VALID,0.777058,
2005-12-30, 03:28:00,VALID,917.179,VALID,0,VALID,100,VALID,0.135847,VALID,18.4873,VALID,90,VALID,0.823552,
2005-12-30, 03:29:00,VALID,917.178,VALID,0,VALID,100,VALID,0.101885,VALID,18.4972,VALID,92,VALID,0.802379,
2005-12-30, 03:30:00,VALID,917.176,VALID,0,VALID,100,VALID,0.135847,VALID,18.5127,VALID,93,VALID,0.863735,
2005-12-30, 03:31:00,VALID,917.172,VALID,0,VALID,100,VALID,0.101885,VALID,18.5296,VALID,95,VALID,0.832465,
2005-12-30, 03:32:00,VALID,917.167,VALID,0,VALID,100,VALID,0.101885,VALID,18.5395,VALID,95,VALID,0.712109,
2005-12-30, 03:33:00,VALID,917.161,VALID,0,VALID,100,VALID,0.118866,VALID,18.5321,VALID,95,VALID,0.805618,
2005-12-30, 03:34:00,VALID,917.141,VALID,0,VALID,100,VALID,0.0849042,VALID,18.5358,VALID,99,VALID,0.671875,
2005-12-30, 03:35:00,VALID,917.143,VALID,0,VALID,100,VALID,0.0169808,VALID,18.5534,VALID,115,VALID,0.577344,
2005-12-30, 03:36:00,VALID,917.133,VALID,0,VALID,100,VALID,0.0509425,VALID,18.569,VALID,94,VALID,0.522104,
2005-12-30, 03:37:00,VALID,917.127,VALID,0,VALID,100,VALID,0,VALID,18.5857,VALID,99,VALID,0.292878,
2005-12-30, 03:38:00,VALID,917.114,VALID,0,VALID,100,VALID,0.0509425,VALID,18.5988,VALID,79,VALID,0.43608,
2005-12-30, 03:39:00,VALID,917.106,VALID,0,VALID,100,VALID,0,VALID,18.6115,VALID,86,VALID,0.563227,
2005-12-30, 03:40:00,VALID,917.104,VALID,0,VALID,100,VALID,-0.0169808,VALID,18.6286,VALID,106,VALID,0.525343,
2005-12-30, 03:41:00,VALID,917.091,VALID,0,VALID,100,VALID,0,VALID,18.6282,VALID,107,VALID,0,
2005-12-30, 03:42:00,VALID,917.093,VALID,0.2,VALID,100,VALID,0,VALID,18.6143,VALID,113,VALID,0.257068,
2005-12-30, 03:43:00,VALID,917.091,VALID,0,VALID,100,VALID,0,VALID,18.6212,VALID,132,VALID,0.339063,
2005-12-30, 03:44:00,VALID,917.086,VALID,0,VALID,100,VALID,-0.0169808,VALID,18.6145,VALID,121,VALID,0.423118,